CanjetBLOCKVirtuelBLOCKQcBLOCKBLOCKBLOCKBLOCKBLOCKBLOCKBLOCKBLOCKBLOCKBLOCKBLOCKvolsBLOCKavecBLOCKFS-kACARS2020-10-01BLOCK05colon06pm

volsBLOCKBLOCKBLOCKBLOCKBLOCKpilotesBLOCKBLOCKBLOCKBLOCKBLOCKBLOCKBLOCKBLOCKtypeBLOCKBLOCKdepBLOCKBLOCKarrBLOCKBLOCKBLOCKBLOCKBLOCKaltBLOCKBLOCKBLOCKBLOCKBLOCKgsBLOCKBLOCKBLOCKBLOCKstatut

cja9999LouisBLOCKMB738CYEG-CYZF0ft0ktsarrived
CJA319MichelBLOCKAB738CYUL-CYWG0ft0ktsarrived
CJA7103StephaneBLOCKGB748OMAA-CYUL31995ft420kts07colon29pm
CJA9999PierreBLOCKDC750KLAS-KSAN0ft0ktsarrived
cja9999Jean-PierreBLOCKAA320CYUL-KLGA0ft0ktsarrived








BLOCKAppuyerBLOCKsurBLOCKF5BLOCKpourBLOCKactualiserBLOCKBLOCKBLOCKMiseBLOCKaBLOCKjourcolonBLOCK17colon06colon30pmCanjetBLOCKvirtuelBLOCKQC

Bienvenue chez Canjetvirtuel-Q

Publié par Michel Ayotte le 2013-06-14

 

Canjetvirtuel-Québec est une compagnie aérienne virtuelle qui a été fondée par 2 passionnés de la simulation de vol.

Elle est opérée avec les Boeing 737. Exceptionnelement et pour votre plaisir tous les autres versions de Boeing et Airbus sont autorisées.

Ces appareils pouvant faire des vols cargos ou des vols passagers,que ce soit au Canada, Europe, États-Unis, Mexique et Caraïbes.

Vous trouverez votre place comme pilote chez nous!



Avis

Aux fins de la simulation de vol seulement. CanjetVirtuel Québec n'est en aucun cas affilié avec n'importe quelle compagnie aérienne du monde réel. CanjetVirtuel Québec est un site à but non lucratif gérée par des amateurs de simulation de vol. Toutes les images sont la propriété exclusive de leurs propriétaires respectifs.
| propulsé par phpVMS, © 2013-2020.

Notice

For flight simulation purposes only. CanjetVirtuel Quebec is in no way affiliated with any real world airline. CanjetVirtuel Quebec is a non-profit site run by flight simulation enthusiasts. All images are the sole property of their respective owners.
| powered by phpVMS, © 2013-2020.

Affiliations

Vatsim

Les statistiques du site

Nombre de pilotes: 15
Total des vols effectués: 6787
Trajets disponibles: 682
Passagers transportés: 1816113
Total des heures de vol: 22612
Distance totale (NM): 8829466
Pilotes en ligne: 3

Nouvelles

Bienvenue chez Canjetvirtuel-Q
06/14/2013

METAR

CYHZ 010500Z 22008KT 15SM BKN008 15/15 A2984 RMK SF7 SLP108 DENSITY ALT 700FT

CYQB 010500Z 24005KT 15SM FEW073 11/10 A2965 RMK AC1 SLP043

CYUL 010500Z 17006KT 15SM FEW040 SCT075 13/10 A2962 RMK SC1AC4 SC TR SLP033 DENSITY ALT 200FT

CYYZ 010500Z 23007KT 15SM FEW100 BKN160 BKN250 11/09 A2965 RMK AC2AC3CC1 SLP044 DENSITY ALT 600FT